This demonstration page uses our WeatherBlox Daily Observations layout. Learn more.

Left ArrowRight Arrow

44.8408, -93.29828

Hourly Observations for June 17, 2015

Temp ( °F °C ) Dew Point ( °F °C ) Humidity (%) Winds ( mph kmh ) Pressure ( in mb ) Visibility ( mi km ) Precip ( " mm )
5:53 am 05:53 Cloudy 61 16.1 53 11.7 75 75 E 8 13 29.98 1015 10 16 0.00 0.00
6:53 am 06:53 Mostly Cloudy 62 16.7 55 12.8 78 78 VRB 5 7 29.97 1015 10 16 0.00 0.00
7:53 am 07:53 Mostly Cloudy 66 18.9 57 13.9 73 73 SE 6 9 29.97 1015 10 16 0.00 0.00
8:53 am 08:53 Mostly Sunny 69 20.6 59 15 70 70 SSE 8 13 29.96 1014 10 16 0.00 0.00
9:53 am 09:53 Mostly Sunny 71 21.7 61 16.1 71 71 SE 7 11 29.95 1014 10 16 0.00 0.00
10:53 am 10:53 Partly Cloudy 74 23.3 62 16.7 67 67 SE 3 6 29.93 1013 10 16 0.00 0.00
11:53 am 11:53 Mostly Cloudy 77 25 64 17.8 64 64 S 10 17 29.92 1013 10 16 0.00 0.00
12:04 pm 12:04 Mostly Cloudy 77 25 64 18 65 65 SSE 12 19 29.91 1013 10 16 0.00 0.00
12:53 pm 12:53 Mostly Cloudy 78 25.6 65 18.3 64 64 SSE 12 19 29.91 1013 10 16 0.00 0.00
1:19 pm 13:19 Cloudy 77 25 65 18.3 66 66 S 12 19 29.88 1012 10 16 0.00 0.00
1:29 pm 13:29 Cloudy with Light Rain 77 25 65 18.3 66 66 S 9 15 29.88 1012 8 13 0.00 0.03
1:38 pm 13:38 Cloudy with Thunderstorms 75 24 66 19 74 74 VRB 6 9 29.88 1012 8 13 0.00 0.00
1:53 pm 13:53 Cloudy with Thunderstorms 73 22.8 67 19.4 81 81 N 6 9 29.89 1012 10 16 0.03 0.76
2:09 pm 14:09 Cloudy 75 23.9 67 19.4 76 76 VRB 3 6 29.88 1012 10 16 0.00 0.00
2:46 pm 14:46 Cloudy with Nearby Thunderstorms 74 23.3 67 19.4 79 79 VRB 3 6 29.85 1011 9 14 0.04 1.02
2:53 pm 14:53 Cloudy with Strong Thunderstorms 73 23 68 20 83 83 NW 9 15 29.85 1011 3 4 0.00 0.00
2:58 pm 14:58 Cloudy with Strong Thunderstorms 72 22.2 68 20 87 87 NW 16 26 29.85 1011 2 3 0.09 2.29
3:00 pm 15:00 Cloudy with Strong Thunderstorms 72 22 68 20 88 88 WNW 13 20 29.85 1011 1 2 0.00 0.00
3:06 pm 15:06 Cloudy with Strong Thunderstorms 70 21 70 21 100 100 W 9 15 29.91 1013 1 1 0.00 0.00
3:08 pm 15:08 Cloudy with Strong Thunderstorms 70 21.1 69 20.6 97 97 NW 12 19 29.88 1012 1 1 0.53 13.46
3:13 pm 15:13 Cloudy with Nearby Thunderstorms 70 21.1 67 19.4 90 90 WSW 3 6 29.91 1013 5 8 0.70 17.78
3:30 pm 15:30 Cloudy with Nearby Thunderstorms 72 22 68 20 88 88 Calm 29.85 1011 8 13 0.00 0.00
3:37 pm 15:37 Cloudy with Nearby Thunderstorms 73 22.8 68 20 84 84 Calm 29.85 1011 10 16 0.76 19.30
3:44 pm 15:44 Cloudy 73 23 68 20 83 83 VRB 6 9 29.88 1012 10 16 0.00 0.00
3:53 pm 15:53 Cloudy 74 23.3 67 19.4 79 79 Calm 29.88 1012 10 16 0.76 19.30
4:17 pm 16:17 Cloudy 72 22.2 66 18.9 82 82 N 14 22 29.85 1011 10 16 0.00 0.00
4:40 pm 16:40 Cloudy 71 21.7 65 18.3 81 81 N 8 13 29.85 1011 10 16 0.00 0.00
4:53 pm 16:53 Cloudy 71 21.7 65 18.3 81 81 NNW 8 13 29.88 1012 10 16 0.00 0.00
5:06 pm 17:06 Cloudy 70 21 64 18 83 83 NNW 7 11 29.88 1012 10 16 0.00 0.00
5:14 pm 17:14 Cloudy with Light Rain 70 21.1 63 17.2 79 79 NW 6 9 29.88 1012 10 16 0.00 0.03
5:20 pm 17:20 Mostly Cloudy with Light Rain 70 21.1 64 17.8 82 82 NNW 9 15 29.88 1012 10 16 0.00 0.03
5:53 pm 17:53 Mostly Cloudy 70 21.1 63 17.2 79 79 NW 13 20 29.88 1012 10 16 0.00 0.03
6:53 pm 18:53 Mostly Cloudy 69 20.6 62 16.7 78 78 N 9 15 29.87 1012 10 16 0.00 0.00
7:53 pm 19:53 Mostly Cloudy 68 20 61 16.1 78 78 NNW 9 15 29.88 1012 10 16 0.00 0.00
8:53 pm 20:53 Partly Cloudy 67 19.4 61 16.1 81 81 WNW 10 17 29.89 1012 10 16 0.00 0.00
9:27 pm 21:27 Mostly Cloudy 67 19.4 61 16.1 81 81 NNW 10 17 29.91 1013 10 16 0.00 0.00
9:48 pm 21:48 Cloudy 66 19 61 16 83 83 NW 9 15 29.91 1013 10 16 0.00 0.00
9:53 pm 21:53 Cloudy 67 19.4 61 16.1 81 81 NW 13 20 29.91 1013 10 16 0.00 0.00
10:14 pm 22:14 Cloudy 66 18.9 60 15.6 81 81 NNW 12 19 29.94 1014 10 16 0.00 0.00
10:53 pm 22:53 Cloudy 65 18.3 59 15 81 81 NW 10 17 29.93 1013 10 16 0.00 0.00
11:53 pm 23:53 Cloudy 65 18.3 58 14.4 78 78 NW 9 15 29.93 1014 10 16 0.00 0.00

Powered by AerisWeather